GSAT0213 (GALILEO 17)

Last updated on Sun Jun 21 2026 00:02:55 GMT+0000 (Coordinated Universal Time)

1 41861U 16069C 26170.89901147 -.00000014 00000+0 00000+0 0 9991 2 41861 55.5002 101.0142 0004814 312.9981 46.9417 1.70474134 59565
UTC large
Height (km)
Speed (km/s)
/
Latitude / Longitude
Inclination (degrees)
Orbital Period (minutes)
Azimuth
Elevation
Range (km)
Doppler Factor

Next 0 passes for location: London (51.5072 / 0.1276)

No passes found over London.
GSAT0213 (GALILEO 17)